Weather in Uyeg

Russia / Komi Republic     65°44′10″N   52°03′45″E
temp.,
°C
wind,
m/s
gust,
m/s
humid.,
%
clouds,
%
prec.,
mm/h
press.,
hPa
HPBL,
m
18 january, mon
mon1800:00−26n1210099 0.0 101119
03:00−28nne229875 0.0 101319
06:00−29n12970 0.0 101419
09:00−30nne01980 0.0 101519
12:00−28ssw11960 0.0 101619
15:00−29s12960 0.0 101719
18:00−28s239761 0.0 101665
21:00−25sse389480 0.0 1015205
19 january, tue
tue1900:00−22sse4994100 0.0 1012293
03:00−20sse41098100 0.8 1011426
06:00−18sse3896100 0.5 1009357
09:00−18sse3797100 0.8 1009276
12:00−17sse3696100 0.4 1008270
15:00−17sse2697100 0.8 1008231
18:00−16se2697100 0.5 1008206
21:00−16se2597100 0.9 1007178
20 january, wed
wed2000:00−15se2497100 0.4 1007148
03:00−15se2497100 1.1 1007140
06:00−16e2297100 0.6 100782
09:00−17ne2498100 0.8 1007104
12:00−19nne259999 0.1 1008139
15:00−22nne3699100 0.1 1010158
18:00−22nne389899 0.1 1011259
21:00−25nne379799 0.1 1012253
21 january, thu
thu2100:00−28n3898100 0.0 1013228
03:00−29nne3898100 0.1 1014223
06:00−30nne3898100 0.0 1014224
09:00−31nne3798100 0.1 1015212
12:00−30nne3797100 0.0 1015264
15:00−31nne3798100 0.1 1015224
18:00−32nne3798100 0.0 1014222
21:00−32nne3697100 0.1 1014227
22 january, fri
fri2200:00−31nne379799 0.1 1014298
03:00−31nne3796100 0.1 1014341
06:00−32nne3896100 0.1 1015321
09:00−32nne3796100 0.1 1016340
12:00−31nne3696100 0.0 1018308
15:00−33n3797100 0.1 1019249
18:00−34n3796100 0.0 1021250
21:00−38n279675 0.1 1023175